Hourly Weather Roundup
Issued by NWS Central Illinois

Home | Current Version | Previous Version | Text Only | Print | Product List | Glossary On
Versions: 1 2 3 4 5 6 7 8 9 10 11 12 13 14 15 16 17 18 19 20 21 22 23 24 25 26 27 28 29 30 31 32 33 34 35 36 37 38 39 40 41 42 43 44 45 46 47 48 49 50
000
NZUS43 KILX 190310
HWRILX

AREA WEATHER ROUNDUP
NATIONAL WEATHER SERVICE, LINCOLN IL
1000 PM CDT THU SEP 18 2014


CITY           SKY/WX    TMP DP  RH WIND       PRES   REMARKS
BLOOMINGTON    CLEAR     54  46  74 NE10      30.13R
CHAMPAIGN      CLEAR     55  47  74 NE6       30.12R
DECATUR        CLEAR     53  47  79 CALM      30.11R
FLORA          CLEAR     58  53  84 CALM      30.10R
GALESBURG      CLEAR     58  49  73 E5        30.10R
JACKSONVILLE   CLEAR     60  52  75 SE5       30.09R
LACON          CLEAR     56  49  77 E9        30.11R
LAWRENCEVILLE  CLEAR     55  52  89 CALM      30.10R
LITCHFIELD     CLEAR     56  53  91 E5        30.08S
$$


CITY           SKY/WX    TMP DP  RH WIND       PRES   REMARKS
LINCOLN        CLEAR     55  49  79 CALM      30.08S
MACOMB         CLEAR     55  51  89 E6        30.10S
MATTOON        CLEAR     57  51  80 CALM      30.10R
MT CARMEL AP   CLEAR     59  54  82 CALM      30.09R
OLNEY-NOBLE AP CLEAR     54  52  94 CALM      30.09R
PARIS          CLEAR     52  51  97 CALM      30.12R
PEORIA         CLEAR     61  49  64 E6        30.10S
PONTIAC        CLEAR     59  57  94 E6        30.12R
RANTOUL        CLEAR     58  49  72 E6        30.13R
ROBINSON       CLEAR     53  52  97 CALM      30.11R
SPRINGFIELD    CLEAR     56  49  77 E5        30.09R
TAYLORVILLE    CLEAR     59  46  63 E7        30.09R
$$

...REGIONAL REPORTS...


CITY           SKY/WX    TMP DP  RH WIND       PRES   REMARKS
CHICAGO O`HARE PTCLDY    58  53  84 N5        30.15S
KANKAKEE       CLEAR     56  55  95 NE6       30.14R FOG
MOLINE         CLEAR     57  49  74 E7        30.10R
MOUNT VERNON   CLEAR     54  48  82 N3        30.09R
PITTSFIELD     CLEAR     58  55  89 CALM      30.09R
QUINCY         CLEAR     62  53  72 E5        30.07R
ROCKFORD       CLEAR     56  52  86 E10       30.16R
$$


CITY           SKY/WX    TMP DP  RH WIND       PRES   REMARKS
BURLINGTON     CLEAR     61  52  72 E6        30.08R
CEDAR RAPIDS   CLEAR     57  53  86 E6        30.08R
DES MOINES     CLEAR     63  55  75 SE7       30.05R
KIRKSVILLE     CLEAR     55  53  93 CALM      30.07R
OTTUMWA        CLEAR     57  52  83 SE6       30.07R
ST LOUIS       PTCLDY    65  54  67 CALM      30.07R
$$


CITY           SKY/WX    TMP DP  RH WIND       PRES   REMARKS
TERRE HAUTE    CLEAR     51  49  92 CALM      30.11R
EVANSVILLE     CLEAR     60  54  80 CALM      30.08R
INDIANAPOLIS   CLEAR     62  48  60 E6        30.12R
LAFAYETTE      CLEAR     57  49  74 NE5       30.13R
MADISON        PTCLDY    54  51  90 E5        30.15R
MILWAUKEE      MOCLDY    54  50  86 NE7       30.17F
$$




USA.gov is the U.S. government's official web portal to all federal, state and local government web resources and services.